Time,TemperatureF,DewpointF,PressureIn,WindDirection,WindDirectionDegrees,WindSpeedMPH,WindSpeedGustMPH,Humidity,HourlyPrecipIn,Conditions,Clouds,dailyrainin,SoftwareType,DateUTC
2013-01-18 00:03:00,25.9,5.0,30.23,WSW,248,0.2,2.0,40,0.00,,,0.00,WUHU216HW,2013-01-18 08:03:00,
2013-01-18 00:08:00,25.9,5.0,30.23,WSW,248,0.4,1.8,40,0.00,,,0.00,WUHU216HW,2013-01-18 08:08:00,
2013-01-18 00:13:00,25.9,5.0,30.23,WSW,248,0.4,1.1,40,0.00,,,0.00,WUHU216HW,2013-01-18 08:13:00,
2013-01-18 00:18:00,25.9,5.0,30.23,WSW,248,0.7,1.1,40,0.00,,,0.00,WUHU216HW,2013-01-18 08:18:00,
2013-01-18 00:23:00,26.1,5.1,30.23,WSW,248,0.0,1.1,40,0.00,,,0.00,WUHU216HW,2013-01-18 08:23:00,
2013-01-18 00:28:00,26.1,5.1,30.23,WSW,248,1.1,1.1,40,0.00,,,0.00,WUHU216HW,2013-01-18 08:28:00,
2013-01-18 00:33:00,26.3,5.2,30.23,WSW,248,1.3,1.3,40,0.00,,,0.00,WUHU216HW,2013-01-18 08:33:00,
2013-01-18 00:38:00,26.3,5.2,30.23,WSW,248,0.9,1.3,40,0.00,,,0.00,WUHU216HW,2013-01-18 08:38:00,
2013-01-18 00:43:00,26.3,5.2,30.23,WSW,248,1.3,1.3,40,0.00,,,0.00,WUHU216HW,2013-01-18 08:43:00,
2013-01-18 00:48:00,26.3,5.2,30.23,WSW,248,1.3,1.6,40,0.00,,,0.00,WUHU216HW,2013-01-18 08:48:00,
2013-01-18 00:53:00,26.3,5.2,30.23,WSW,248,1.8,2.0,40,0.00,,,0.00,WUHU216HW,2013-01-18 08:53:00,
2013-01-18 00:58:00,26.1,5.6,30.23,WSW,248,1.3,2.0,41,0.00,,,0.00,WUHU216HW,2013-01-18 08:58:00,
2013-01-18 01:03:00,26.1,5.6,30.23,WSW,248,1.6,1.8,41,0.00,,,0.00,WUHU216HW,2013-01-18 09:03:00,
2013-01-18 01:08:00,26.1,5.6,30.23,WSW,248,1.1,1.6,41,0.00,,,0.00,WUHU216HW,2013-01-18 09:08:00,
2013-01-18 01:13:00,26.1,5.6,30.23,WSW,248,2.0,2.0,41,0.00,,,0.00,WUHU216HW,2013-01-18 09:13:00,
2013-01-18 01:18:00,25.9,5.4,30.23,WSW,248,1.8,2.0,41,0.00,,,0.00,WUHU216HW,2013-01-18 09:18:00,
2013-01-18 01:23:00,25.9,5.4,30.23,WSW,248,1.6,2.0,41,0.00,,,0.00,WUHU216HW,2013-01-18 09:23:00,
2013-01-18 01:28:00,25.9,5.4,30.23,WSW,248,1.6,1.8,41,0.00,,,0.00,WUHU216HW,2013-01-18 09:28:00,
2013-01-18 01:33:00,25.9,6.0,30.23,West,270,1.3,2.0,42,0.00,,,0.00,WUHU216HW,2013-01-18 09:33:00,
2013-01-18 01:38:00,25.9,6.0,30.23,WSW,248,1.1,2.0,42,0.00,,,0.00,WUHU216HW,2013-01-18 09:38:00,
2013-01-18 01:43:00,25.9,6.0,30.23,WSW,248,1.8,1.8,42,0.00,,,0.00,WUHU216HW,2013-01-18 09:43:00,
2013-01-18 01:48:00,25.9,6.0,30.23,WSW,248,1.1,2.0,42,0.00,,,0.00,WUHU216HW,2013-01-18 09:48:00,
2013-01-18 01:53:00,25.7,5.8,30.22,West,270,0.9,2.0,42,0.00,,,0.00,WUHU216HW,2013-01-18 09:53:00,
2013-01-18 01:58:00,25.7,5.8,30.22,West,270,0.7,1.6,42,0.00,,,0.00,WUHU216HW,2013-01-18 09:58:00,
2013-01-18 02:03:00,25.9,5.4,30.22,WSW,248,1.8,1.8,41,0.00,,,0.00,WUHU216HW,2013-01-18 10:03:00,
2013-01-18 02:08:00,25.9,5.4,30.22,WSW,248,1.6,1.8,41,0.00,,,0.00,WUHU216HW,2013-01-18 10:08:00,
2013-01-18 02:13:00,25.7,5.2,30.22,WSW,248,1.3,2.0,41,0.00,,,0.00,WUHU216HW,2013-01-18 10:13:00,
2013-01-18 02:18:00,25.7,5.2,30.22,WSW,248,1.1,2.0,41,0.00,,,0.00,WUHU216HW,2013-01-18 10:18:00,
2013-01-18 02:23:00,25.7,5.2,30.22,WSW,248,1.3,1.6,41,0.00,,,0.00,WUHU216HW,2013-01-18 10:23:00,
2013-01-18 02:28:00,25.7,5.2,30.22,West,270,1.3,1.8,41,0.00,,,0.00,WUHU216HW,2013-01-18 10:28:00,
2013-01-18 02:33:00,25.9,5.4,30.21,WSW,248,2.2,2.5,41,0.00,,,0.00,WUHU216HW,2013-01-18 10:33:00,
2013-01-18 02:38:00,25.7,5.2,30.22,West,270,0.7,2.5,41,0.00,,,0.00,WUHU216HW,2013-01-18 10:38:00,
2013-01-18 02:43:00,25.9,5.0,30.21,West,270,0.0,2.2,40,0.00,,,0.00,WUHU216HW,2013-01-18 10:43:00,
2013-01-18 02:48:00,25.9,5.0,30.21,WSW,248,1.3,1.3,40,0.00,,,0.00,WUHU216HW,2013-01-18 10:48:00,
2013-01-18 02:53:00,25.9,5.0,30.21,WSW,248,1.3,1.6,40,0.00,,,0.00,WUHU216HW,2013-01-18 10:53:00,
2013-01-18 02:58:00,25.9,5.0,30.21,West,270,1.1,1.6,40,0.00,,,0.00,WUHU216HW,2013-01-18 10:58:00,
2013-01-18 03:03:00,26.1,4.5,30.21,WSW,248,1.3,1.6,39,0.00,,,0.00,WUHU216HW,2013-01-18 11:03:00,
2013-01-18 03:08:00,26.1,4.5,30.21,West,270,1.3,1.3,39,0.00,,,0.00,WUHU216HW,2013-01-18 11:08:00,
2013-01-18 03:13:00,26.1,4.5,30.21,West,270,1.1,1.6,39,0.00,,,0.00,WUHU216HW,2013-01-18 11:13:00,
2013-01-18 03:18:00,25.9,4.3,30.21,WSW,248,1.1,1.6,39,0.00,,,0.00,WUHU216HW,2013-01-18 11:18:00,
2013-01-18 03:23:00,25.9,4.3,30.21,WSW,248,1.3,1.8,39,0.00,,,0.00,WUHU216HW,2013-01-18 11:23:00,
2013-01-18 03:28:00,25.9,4.3,30.21,WSW,248,1.3,1.8,39,0.00,,,0.00,WUHU216HW,2013-01-18 11:28:00,
2013-01-18 03:33:00,25.7,4.8,30.21,West,270,1.3,1.6,40,0.00,,,0.00,WUHU216HW,2013-01-18 11:33:00,
2013-01-18 03:38:00,25.6,4.6,30.21,WSW,248,1.1,1.6,40,0.00,,,0.00,WUHU216HW,2013-01-18 11:38:00,
2013-01-18 03:43:00,25.6,5.1,30.21,West,270,1.3,1.6,41,0.00,,,0.00,WUHU216HW,2013-01-18 11:43:00,
2013-01-18 03:48:00,25.6,5.1,30.21,WSW,248,1.8,2.0,41,0.00,,,0.00,WUHU216HW,2013-01-18 11:48:00,
2013-01-18 03:53:00,25.4,5.0,30.21,WSW,248,1.8,2.0,41,0.00,,,0.00,WUHU216HW,2013-01-18 11:53:00,
2013-01-18 03:58:00,25.4,5.0,30.21,WSW,248,1.1,2.0,41,0.00,,,0.00,WUHU216HW,2013-01-18 11:58:00,
2013-01-18 04:03:00,25.2,4.8,30.21,WSW,248,0.0,2.0,41,0.00,,,0.00,WUHU216HW,2013-01-18 12:03:00,
2013-01-18 04:08:00,25.4,5.0,30.21,WSW,248,0.0,1.1,41,0.00,,,0.00,WUHU216HW,2013-01-18 12:08:00,
2013-01-18 04:13:00,25.4,5.0,30.21,WSW,248,0.0,0.2,41,0.00,,,0.00,WUHU216HW,2013-01-18 12:13:00,
2013-01-18 04:18:00,25.6,5.1,30.21,WSW,248,0.9,0.9,41,0.00,,,0.00,WUHU216HW,2013-01-18 12:18:00,
2013-01-18 04:23:00,25.6,5.1,30.21,West,270,1.1,1.1,41,0.00,,,0.00,WUHU216HW,2013-01-18 12:23:00,
2013-01-18 04:28:00,25.6,5.6,30.21,WNW,293,0.4,1.1,42,0.00,,,0.00,WUHU216HW,2013-01-18 12:28:00,
2013-01-18 04:33:00,25.4,5.4,30.21,West,270,1.3,1.3,42,0.00,,,0.00,WUHU216HW,2013-01-18 12:33:00,
2013-01-18 04:38:00,25.4,5.4,30.21,West,270,1.3,1.6,42,0.00,,,0.00,WUHU216HW,2013-01-18 12:38:00,
2013-01-18 04:43:00,25.0,5.1,30.21,West,270,1.1,1.6,42,0.00,,,0.00,WUHU216HW,2013-01-18 12:43:00,
2013-01-18 04:48:00,25.0,5.6,30.21,West,270,0.9,1.3,43,0.00,,,0.00,WUHU216HW,2013-01-18 12:48:00,
2013-01-18 04:53:00,24.8,5.4,30.21,West,270,0.7,1.6,43,0.00,,,0.00,WUHU216HW,2013-01-18 12:53:00,
2013-01-18 04:58:00,24.7,5.2,30.21,West,270,0.9,1.6,43,0.00,,,0.00,WUHU216HW,2013-01-18 12:58:00,
2013-01-18 05:03:00,24.7,5.2,30.21,West,270,0.9,1.3,43,0.00,,,0.00,WUHU216HW,2013-01-18 13:03:00,
2013-01-18 05:08:00,24.5,5.1,30.21,West,270,1.1,1.1,43,0.00,,,0.00,WUHU216HW,2013-01-18 13:08:00,
2013-01-18 05:13:00,24.5,5.1,30.21,West,270,1.1,1.8,43,0.00,,,0.00,WUHU216HW,2013-01-18 13:13:00,
2013-01-18 05:18:00,24.3,5.0,30.21,West,270,1.1,1.8,43,0.00,,,0.00,WUHU216HW,2013-01-18 13:18:00,
2013-01-18 05:23:00,24.3,4.4,30.21,West,270,1.1,1.3,42,0.00,,,0.00,WUHU216HW,2013-01-18 13:23:00,
2013-01-18 05:28:00,24.3,4.4,30.21,West,270,1.1,1.3,42,0.00,,,0.00,WUHU216HW,2013-01-18 13:28:00,
2013-01-18 05:33:00,24.5,4.6,30.21,West,270,1.1,1.3,42,0.00,,,0.00,WUHU216HW,2013-01-18 13:33:00,
2013-01-18 05:38:00,24.5,4.2,30.21,West,270,1.6,1.8,41,0.00,,,0.00,WUHU216HW,2013-01-18 13:38:00,
2013-01-18 05:43:00,24.3,4.0,30.21,WSW,248,2.2,2.7,41,0.00,,,0.00,WUHU216HW,2013-01-18 13:43:00,
2013-01-18 05:48:00,24.3,4.0,30.21,WSW,248,1.3,2.7,41,0.00,,,0.00,WUHU216HW,2013-01-18 13:48:00,
2013-01-18 05:53:00,24.3,4.0,30.21,WSW,248,0.4,2.5,41,0.00,,,0.00,WUHU216HW,2013-01-18 13:53:00,
2013-01-18 05:58:00,24.5,4.2,30.21,WSW,248,1.1,1.3,41,0.00,,,0.00,WUHU216HW,2013-01-18 13:58:00,
2013-01-18 06:03:00,24.7,4.8,30.21,WSW,248,1.8,1.8,42,0.00,,,0.00,WUHU216HW,2013-01-18 14:03:00,
2013-01-18 06:08:00,24.7,4.8,30.21,WSW,248,1.3,2.2,42,0.00,,,0.00,WUHU216HW,2013-01-18 14:08:00,
2013-01-18 06:13:00,24.5,4.6,30.21,WSW,248,1.3,2.2,42,0.00,,,0.00,WUHU216HW,2013-01-18 14:13:00,
2013-01-18 06:18:00,24.5,4.6,30.21,WSW,248,1.3,2.0,42,0.00,,,0.00,WUHU216HW,2013-01-18 14:18:00,
2013-01-18 06:23:00,24.5,4.6,30.21,WSW,248,0.0,1.8,42,0.00,,,0.00,WUHU216HW,2013-01-18 14:23:00,
2013-01-18 06:28:00,24.5,4.6,30.21,WSW,248,0.0,1.3,42,0.00,,,0.00,WUHU216HW,2013-01-18 14:28:00,
2013-01-18 06:33:00,24.7,4.8,30.21,WSW,248,0.0,0.4,42,0.00,,,0.00,WUHU216HW,2013-01-18 14:33:00,
2013-01-18 06:38:00,24.8,4.4,30.22,WSW,248,0.2,0.4,41,0.00,,,0.00,WUHU216HW,2013-01-18 14:38:00,
2013-01-18 06:43:00,24.8,4.4,30.22,WSW,248,0.4,1.1,41,0.00,,,0.00,WUHU216HW,2013-01-18 14:43:00,
2013-01-18 06:48:00,24.8,4.4,30.22,WSW,248,1.1,1.6,41,0.00,,,0.00,WUHU216HW,2013-01-18 14:48:00,
2013-01-18 06:53:00,24.8,5.0,30.22,WSW,248,2.5,2.5,42,0.00,,,0.00,WUHU216HW,2013-01-18 14:53:00,
2013-01-18 06:58:00,24.7,4.8,30.22,WSW,248,1.1,2.5,42,0.00,,,0.00,WUHU216HW,2013-01-18 14:58:00,
2013-01-18 07:03:00,24.5,4.6,30.22,WSW,248,1.1,2.5,42,0.00,,,0.00,WUHU216HW,2013-01-18 15:03:00,
2013-01-18 07:08:00,24.5,4.6,30.22,WSW,248,1.8,2.2,42,0.00,,,0.00,WUHU216HW,2013-01-18 15:08:00,
2013-01-18 07:13:00,24.5,4.6,30.22,WSW,248,2.0,2.2,42,0.00,,,0.00,WUHU216HW,2013-01-18 15:13:00,
2013-01-18 07:18:00,24.3,5.0,30.22,WSW,248,1.8,2.5,43,0.00,,,0.00,WUHU216HW,2013-01-18 15:18:00,
2013-01-18 07:23:00,24.3,5.0,30.22,WSW,248,2.0,2.5,43,0.00,,,0.00,WUHU216HW,2013-01-18 15:23:00,
2013-01-18 07:28:00,24.3,5.0,30.22,WSW,248,1.3,2.5,43,0.00,,,0.00,WUHU216HW,2013-01-18 15:28:00,
2013-01-18 07:33:00,24.3,5.0,30.23,WSW,248,1.1,2.5,43,0.00,,,0.00,WUHU216HW,2013-01-18 15:33:00,
2013-01-18 07:38:00,24.5,5.6,30.23,WSW,248,0.7,1.8,44,0.00,,,0.00,WUHU216HW,2013-01-18 15:38:00,
2013-01-18 07:43:00,25.0,5.6,30.23,WSW,248,0.0,1.3,43,0.00,,,0.00,WUHU216HW,2013-01-18 15:43:00,
2013-01-18 07:48:00,25.6,6.0,30.23,WSW,248,0.0,0.9,43,0.00,,,0.00,WUHU216HW,2013-01-18 15:48:00,
2013-01-18 07:53:00,25.9,6.4,30.23,WSW,248,0.0,1.1,43,0.00,,,0.00,WUHU216HW,2013-01-18 15:53:00,
2013-01-18 07:58:00,26.3,6.8,30.23,WSW,248,0.2,1.1,43,0.00,,,0.00,WUHU216HW,2013-01-18 15:58:00,
2013-01-18 08:03:00,27.0,7.4,30.23,WSW,248,0.0,0.4,43,0.00,,,0.00,WUHU216HW,2013-01-18 16:03:00,
2013-01-18 08:08:00,27.5,7.8,30.24,East,90,0.4,1.1,43,0.00,,,0.00,WUHU216HW,2013-01-18 16:08:00,
2013-01-18 08:13:00,28.3,8.6,30.24,ESE,113,0.4,1.1,43,0.00,,,0.00,WUHU216HW,2013-01-18 16:13:00,
2013-01-18 08:18:00,29.0,8.7,30.24,ESE,113,0.0,1.1,42,0.00,,,0.00,WUHU216HW,2013-01-18 16:18:00,
2013-01-18 08:23:00,29.9,9.6,30.24,ESE,113,0.0,0.7,42,0.00,,,0.00,WUHU216HW,2013-01-18 16:23:00,
2013-01-18 08:28:00,30.6,10.2,30.24,ESE,113,0.0,0.7,42,0.00,,,0.00,WUHU216HW,2013-01-18 16:28:00,
2013-01-18 08:33:00,31.3,10.3,30.24,ESE,113,0.2,0.2,41,0.00,,,0.00,WUHU216HW,2013-01-18 16:33:00,
2013-01-18 08:38:00,32.0,11.4,30.24,East,90,0.2,0.7,42,0.00,,,0.00,WUHU216HW,2013-01-18 16:38:00,
2013-01-18 08:43:00,33.3,11.6,30.24,East,90,0.0,1.6,40,0.00,,,0.00,WUHU216HW,2013-01-18 16:43:00,
2013-01-18 08:48:00,34.2,11.8,30.24,East,90,1.1,1.8,39,0.00,,,0.00,WUHU216HW,2013-01-18 16:48:00,
2013-01-18 08:53:00,35.3,12.1,30.24,East,90,0.7,1.8,38,0.00,,,0.00,WUHU216HW,2013-01-18 16:53:00,
2013-01-18 08:58:00,36.4,12.4,30.24,East,90,1.1,1.8,37,0.00,,,0.00,WUHU216HW,2013-01-18 16:58:00,
2013-01-18 09:03:00,37.1,13.1,30.24,SSE,158,0.7,1.8,37,0.00,,,0.00,WUHU216HW,2013-01-18 17:03:00,
2013-01-18 09:08:00,37.8,13.1,30.25,ESE,113,0.0,1.8,36,0.00,,,0.00,WUHU216HW,2013-01-18 17:08:00,
2013-01-18 09:13:00,38.5,13.7,30.25,ENE,68,2.0,2.5,36,0.00,,,0.00,WUHU216HW,2013-01-18 17:13:00,
2013-01-18 09:18:00,39.2,13.7,30.25,ESE,113,1.3,3.1,35,0.00,,,0.00,WUHU216HW,2013-01-18 17:18:00,
2013-01-18 09:23:00,40.0,13.1,30.25,SE,135,0.4,3.8,33,0.00,,,0.00,WUHU216HW,2013-01-18 17:23:00,
2013-01-18 09:28:00,40.7,13.7,30.25,East,90,2.7,3.8,33,0.00,,,0.00,WUHU216HW,2013-01-18 17:28:00,
2013-01-18 09:33:00,41.2,14.1,30.25,ENE,68,1.6,3.6,33,0.00,,,0.00,WUHU216HW,2013-01-18 17:33:00,
2013-01-18 09:38:00,41.8,14.0,30.25,NE,45,0.0,5.4,32,0.00,,,0.00,WUHU216HW,2013-01-18 17:38:00,
2013-01-18 09:43:00,42.1,14.2,30.25,SE,135,0.4,5.4,32,0.00,,,0.00,WUHU216HW,2013-01-18 17:43:00,
2013-01-18 09:48:00,42.1,13.6,30.25,East,90,1.3,5.1,31,0.00,,,0.00,WUHU216HW,2013-01-18 17:48:00,
2013-01-18 09:53:00,42.8,14.1,30.25,ESE,113,1.1,5.1,31,0.00,,,0.00,WUHU216HW,2013-01-18 17:53:00,
2013-01-18 09:58:00,43.6,15.5,30.25,ESE,113,1.8,4.9,32,0.00,,,0.00,WUHU216HW,2013-01-18 17:58:00,
2013-01-18 10:03:00,43.9,15.1,30.25,ESE,113,2.9,4.7,31,0.00,,,0.00,WUHU216HW,2013-01-18 18:03:00,
2013-01-18 10:08:00,44.3,16.1,30.25,ESE,113,2.7,5.4,32,0.00,,,0.00,WUHU216HW,2013-01-18 18:08:00,
2013-01-18 10:13:00,44.6,16.5,30.25,East,90,1.8,5.4,32,0.00,,,0.00,WUHU216HW,2013-01-18 18:13:00,
2013-01-18 10:18:00,44.8,15.9,30.25,East,90,2.9,4.7,31,0.00,,,0.00,WUHU216HW,2013-01-18 18:18:00,
2013-01-18 10:23:00,45.2,16.3,30.25,East,90,2.7,5.1,31,0.00,,,0.00,WUHU216HW,2013-01-18 18:23:00,
2013-01-18 10:28:00,45.5,16.6,30.25,East,90,1.8,5.6,31,0.00,,,0.00,WUHU216HW,2013-01-18 18:28:00,
2013-01-18 10:33:00,45.7,16.1,30.25,ESE,113,2.5,5.6,30,0.00,,,0.00,WUHU216HW,2013-01-18 18:33:00,
2013-01-18 10:38:00,45.7,16.1,30.24,East,90,3.8,5.4,30,0.00,,,0.00,WUHU216HW,2013-01-18 18:38:00,
2013-01-18 10:43:00,46.1,16.4,30.24,NE,45,2.2,5.4,30,0.00,,,0.00,WUHU216HW,2013-01-18 18:43:00,
2013-01-18 10:48:00,46.4,15.9,30.24,ESE,113,4.0,6.3,29,0.00,,,0.00,WUHU216HW,2013-01-18 18:48:00,
2013-01-18 10:53:00,46.6,16.0,30.24,East,90,2.7,6.3,29,0.00,,,0.00,WUHU216HW,2013-01-18 18:53:00,
2013-01-18 10:58:00,47.0,15.4,30.24,ESE,113,1.6,6.7,28,0.00,,,0.00,WUHU216HW,2013-01-18 18:58:00,
2013-01-18 11:03:00,47.2,15.6,30.24,ENE,68,0.9,6.7,28,0.00,,,0.00,WUHU216HW,2013-01-18 19:03:00,
2013-01-18 11:08:00,47.2,15.6,30.23,East,90,4.7,6.3,28,0.00,,,0.00,WUHU216HW,2013-01-18 19:08:00,
2013-01-18 11:13:00,47.3,15.7,30.23,East,90,2.2,7.2,28,0.00,,,0.00,WUHU216HW,2013-01-18 19:13:00,
2013-01-18 11:18:00,47.7,15.1,30.23,SE,135,2.7,7.2,27,0.00,,,0.00,WUHU216HW,2013-01-18 19:18:00,
2013-01-18 11:23:00,47.9,15.2,30.23,ESE,113,2.5,4.5,27,0.00,,,0.00,WUHU216HW,2013-01-18 19:23:00,
2013-01-18 11:28:00,48.1,15.4,30.22,ESE,113,3.1,4.5,27,0.00,,,0.00,WUHU216HW,2013-01-18 19:28:00,
2013-01-18 11:33:00,48.4,15.7,30.22,ESE,113,3.8,4.5,27,0.00,,,0.00,WUHU216HW,2013-01-18 19:33:00,
2013-01-18 11:38:00,48.6,15.8,30.22,ENE,68,2.9,4.7,27,0.00,,,0.00,WUHU216HW,2013-01-18 19:38:00,
2013-01-18 11:43:00,48.6,15.8,30.22,ESE,113,4.0,6.0,27,0.00,,,0.00,WUHU216HW,2013-01-18 19:43:00,
2013-01-18 11:48:00,48.8,16.0,30.21,ESE,113,4.7,6.0,27,0.00,,,0.00,WUHU216HW,2013-01-18 19:48:00,
2013-01-18 11:53:00,48.8,16.0,30.21,ESE,113,1.8,4.7,27,0.00,,,0.00,WUHU216HW,2013-01-18 19:53:00,
2013-01-18 11:58:00,49.0,16.1,30.21,ESE,113,1.6,4.7,27,0.00,,,0.00,WUHU216HW,2013-01-18 19:58:00,
2013-01-18 12:03:00,49.1,16.3,30.21,ESE,113,1.1,3.6,27,0.00,,,0.00,WUHU216HW,2013-01-18 20:03:00,
2013-01-18 12:08:00,49.3,16.5,30.21,ESE,113,3.1,4.0,27,0.00,,,0.00,WUHU216HW,2013-01-18 20:08:00,
2013-01-18 12:13:00,49.3,16.5,30.21,ENE,68,2.7,6.0,27,0.00,,,0.00,WUHU216HW,2013-01-18 20:13:00,
2013-01-18 12:18:00,49.3,16.5,30.20,NE,45,2.5,6.3,27,0.00,,,0.00,WUHU216HW,2013-01-18 20:18:00,
2013-01-18 12:23:00,49.5,16.6,30.20,ESE,113,2.5,6.3,27,0.00,,,0.00,WUHU216HW,2013-01-18 20:23:00,
2013-01-18 12:28:00,49.5,16.6,30.20,SE,135,4.0,4.5,27,0.00,,,0.00,WUHU216HW,2013-01-18 20:28:00,
2013-01-18 12:33:00,49.3,14.6,30.20,East,90,4.0,5.6,25,0.00,,,0.00,WUHU216HW,2013-01-18 20:33:00,
2013-01-18 12:38:00,49.1,16.3,30.20,East,90,3.8,5.8,27,0.00,,,0.00,WUHU216HW,2013-01-18 20:38:00,
2013-01-18 12:43:00,49.0,15.2,30.20,ESE,113,4.3,8.7,26,0.00,,,0.00,WUHU216HW,2013-01-18 20:43:00,
2013-01-18 12:48:00,49.0,16.1,30.20,ESE,113,4.9,8.7,27,0.01,,,0.01,WUHU216HW,2013-01-18 20:48:00,
2013-01-18 12:53:00,48.6,15.8,30.20,SE,135,1.8,6.3,27,0.01,,,0.01,WUHU216HW,2013-01-18 20:53:00,
2013-01-18 12:58:00,48.6,15.8,30.20,ESE,113,5.4,8.3,27,0.01,,,0.01,WUHU216HW,2013-01-18 20:58:00,
2013-01-18 13:03:00,48.2,15.6,30.20,SE,135,6.3,8.3,27,0.01,,,0.01,WUHU216HW,2013-01-18 21:03:00,
2013-01-18 13:08:00,47.9,16.2,30.20,East,90,2.5,6.3,28,0.01,,,0.01,WUHU216HW,2013-01-18 21:08:00,
2013-01-18 13:13:00,47.7,16.0,30.20,ESE,113,5.4,6.3,28,0.01,,,0.01,WUHU216HW,2013-01-18 21:13:00,
2013-01-18 13:18:00,47.5,15.8,30.20,ESE,113,2.5,6.3,28,0.01,,,0.01,WUHU216HW,2013-01-18 21:18:00,
2013-01-18 13:23:00,47.3,15.7,30.20,ENE,68,2.5,6.7,28,0.01,,,0.01,WUHU216HW,2013-01-18 21:23:00,
2013-01-18 13:28:00,47.2,15.6,30.20,ESE,113,5.8,6.7,28,0.01,,,0.01,WUHU216HW,2013-01-18 21:28:00,
2013-01-18 13:33:00,47.2,15.6,30.20,SE,135,0.9,6.7,28,0.01,,,0.01,WUHU216HW,2013-01-18 21:33:00,
2013-01-18 13:38:00,47.3,15.7,30.20,East,90,3.8,6.7,28,0.01,,,0.01,WUHU216HW,2013-01-18 21:38:00,
2013-01-18 13:43:00,47.3,15.7,30.20,ESE,113,2.2,6.9,28,0.01,,,0.01,WUHU216HW,2013-01-18 21:43:00,
2013-01-18 13:48:00,47.3,15.7,30.20,ESE,113,1.1,6.9,28,0.00,,,0.01,WUHU216HW,2013-01-18 21:48:00,
2013-01-18 13:53:00,47.3,15.7,30.20,East,90,1.1,4.7,28,0.00,,,0.01,WUHU216HW,2013-01-18 21:53:00,
2013-01-18 13:58:00,47.2,15.6,30.20,NNE,23,1.8,6.3,28,0.00,,,0.01,WUHU216HW,2013-01-18 21:58:00,
2013-01-18 14:03:00,47.0,15.4,30.20,ENE,68,2.7,6.3,28,0.00,,,0.01,WUHU216HW,2013-01-18 22:03:00,
2013-01-18 14:08:00,47.0,15.4,30.20,East,90,1.8,4.9,28,0.00,,,0.01,WUHU216HW,2013-01-18 22:08:00,
2013-01-18 14:13:00,46.8,15.2,30.20,ENE,68,1.6,5.1,28,0.00,,,0.01,WUHU216HW,2013-01-18 22:13:00,
2013-01-18 14:18:00,47.0,15.4,30.20,ENE,68,3.1,5.1,28,0.00,,,0.01,WUHU216HW,2013-01-18 22:18:00,
2013-01-18 14:23:00,47.0,15.4,30.20,East,90,2.2,4.9,28,0.00,,,0.01,WUHU216HW,2013-01-18 22:23:00,
2013-01-18 14:28:00,46.8,15.2,30.20,ESE,113,2.7,4.9,28,0.00,,,0.01,WUHU216HW,2013-01-18 22:28:00,
2013-01-18 14:33:00,46.8,15.2,30.20,SE,135,1.8,3.4,28,0.00,,,0.01,WUHU216HW,2013-01-18 22:33:00,
2013-01-18 14:38:00,46.4,15.0,30.20,SE,135,2.0,3.4,28,0.00,,,0.01,WUHU216HW,2013-01-18 22:38:00,
2013-01-18 14:43:00,46.4,15.0,30.20,East,90,2.5,6.3,28,0.00,,,0.01,WUHU216HW,2013-01-18 22:43:00,
2013-01-18 14:48:00,46.1,14.6,30.20,ESE,113,1.1,6.3,28,0.00,,,0.01,WUHU216HW,2013-01-18 22:48:00,
2013-01-18 14:53:00,45.9,14.4,30.20,ESE,113,4.3,4.3,28,0.00,,,0.01,WUHU216HW,2013-01-18 22:53:00,
2013-01-18 14:58:00,45.7,14.3,30.20,East,90,2.0,4.3,28,0.00,,,0.01,WUHU216HW,2013-01-18 22:58:00,
2013-01-18 15:03:00,45.5,14.1,30.20,North,0,0.7,3.4,28,0.00,,,0.01,WUHU216HW,2013-01-18 23:03:00,
2013-01-18 15:08:00,45.4,14.0,30.20,ESE,113,1.6,4.0,28,0.00,,,0.01,WUHU216HW,2013-01-18 23:08:00,
2013-01-18 15:13:00,45.2,13.8,30.19,ENE,68,0.9,4.0,28,0.00,,,0.01,WUHU216HW,2013-01-18 23:13:00,
2013-01-18 15:18:00,45.0,13.7,30.20,East,90,4.5,5.4,28,0.01,,,0.02,WUHU216HW,2013-01-18 23:18:00,
2013-01-18 15:23:00,45.0,13.7,30.20,ESE,113,1.8,5.4,28,0.01,,,0.02,WUHU216HW,2013-01-18 23:23:00,
2013-01-18 15:28:00,44.8,13.5,30.19,East,90,3.8,4.5,28,0.01,,,0.02,WUHU216HW,2013-01-18 23:28:00,
2013-01-18 15:33:00,44.8,13.5,30.20,ESE,113,2.7,5.1,28,0.01,,,0.02,WUHU216HW,2013-01-18 23:33:00,
2013-01-18 15:38:00,44.6,13.3,30.20,ESE,113,1.1,5.4,28,0.01,,,0.02,WUHU216HW,2013-01-18 23:38:00,
2013-01-18 15:43:00,44.5,13.1,30.20,NE,45,0.7,5.4,28,0.01,,,0.02,WUHU216HW,2013-01-18 23:43:00,
2013-01-18 15:48:00,44.3,13.0,30.20,ESE,113,1.1,3.6,28,0.01,,,0.02,WUHU216HW,2013-01-18 23:48:00,
2013-01-18 15:53:00,44.1,12.9,30.20,East,90,0.7,2.7,28,0.01,,,0.02,WUHU216HW,2013-01-18 23:53:00,
2013-01-18 15:58:00,44.1,12.9,30.20,ESE,113,0.9,2.7,28,0.01,,,0.02,WUHU216HW,2013-01-18 23:58:00,
2013-01-18 16:03:00,43.9,12.7,30.20,East,90,2.5,2.5,28,0.01,,,0.02,WUHU216HW,2013-01-19 00:03:00,
2013-01-18 16:08:00,43.7,13.4,30.20,SE,135,0.7,2.5,29,0.01,,,0.02,WUHU216HW,2013-01-19 00:08:00,
2013-01-18 16:13:00,43.6,12.3,30.20,ESE,113,0.9,2.5,28,0.01,,,0.02,WUHU216HW,2013-01-19 00:13:00,
2013-01-18 16:18:00,43.6,13.2,30.20,ESE,113,1.8,2.9,29,0.00,,,0.02,WUHU216HW,2013-01-19 00:18:00,
2013-01-18 16:23:00,43.2,13.0,30.20,ESE,113,1.3,2.9,29,0.00,,,0.02,WUHU216HW,2013-01-19 00:23:00,
2013-01-18 16:28:00,43.0,12.8,30.20,East,90,0.2,2.0,29,0.00,,,0.02,WUHU216HW,2013-01-19 00:28:00,
2013-01-18 16:33:00,42.8,12.6,30.20,SE,135,0.4,2.0,29,0.00,,,0.02,WUHU216HW,2013-01-19 00:33:00,
2013-01-18 16:38:00,42.5,13.2,30.20,SE,135,0.0,0.4,30,0.00,,,0.02,WUHU216HW,2013-01-19 00:38:00,
2013-01-18 16:43:00,42.1,13.6,30.20,SSE,158,1.1,1.3,31,0.00,,,0.02,WUHU216HW,2013-01-19 00:43:00,
2013-01-18 16:48:00,41.6,13.1,30.20,SSE,158,0.4,1.3,31,0.00,,,0.02,WUHU216HW,2013-01-19 00:48:00,
2013-01-18 16:53:00,41.0,13.3,30.20,South,180,1.1,1.1,32,0.00,,,0.02,WUHU216HW,2013-01-19 00:53:00,
2013-01-18 16:58:00,40.5,13.5,30.20,SSE,158,0.2,1.1,33,0.00,,,0.02,WUHU216HW,2013-01-19 00:58:00,
2013-01-18 17:03:00,40.0,13.1,30.20,SSE,158,0.0,1.1,33,0.00,,,0.02,WUHU216HW,2013-01-19 01:03:00,
2013-01-18 17:08:00,39.2,13.1,30.20,SSE,158,0.7,0.7,34,0.00,,,0.02,WUHU216HW,2013-01-19 01:08:00,
2013-01-18 17:13:00,38.7,13.2,30.20,South,180,1.1,1.3,35,0.00,,,0.02,WUHU216HW,2013-01-19 01:13:00,
2013-01-18 17:18:00,38.2,13.3,30.21,South,180,0.0,1.3,36,0.00,,,0.02,WUHU216HW,2013-01-19 01:18:00,
2013-01-18 17:23:00,37.6,12.9,30.21,SSW,203,1.1,1.6,36,0.00,,,0.02,WUHU216HW,2013-01-19 01:23:00,
2013-01-18 17:28:00,37.1,13.1,30.21,SSW,203,1.8,1.8,37,0.00,,,0.02,WUHU216HW,2013-01-19 01:28:00,
2013-01-18 17:33:00,36.4,13.1,30.21,SSW,203,1.1,1.8,38,0.00,,,0.02,WUHU216HW,2013-01-19 01:33:00,
2013-01-18 17:38:00,36.0,13.3,30.21,SSW,203,1.1,1.8,39,0.00,,,0.02,WUHU216HW,2013-01-19 01:38:00,
2013-01-18 17:43:00,35.3,13.3,30.21,SSW,203,1.3,1.8,40,0.00,,,0.02,WUHU216HW,2013-01-19 01:43:00,
2013-01-18 17:48:00,34.9,13.1,30.21,SW,225,2.2,2.5,40,0.00,,,0.02,WUHU216HW,2013-01-19 01:48:00,
2013-01-18 17:53:00,34.4,13.1,30.21,SW,225,1.8,2.5,41,0.00,,,0.02,WUHU216HW,2013-01-19 01:53:00,
2013-01-18 17:58:00,34.0,13.2,30.21,SW,225,1.8,2.5,42,0.00,,,0.02,WUHU216HW,2013-01-19 01:58:00,
2013-01-18 18:03:00,33.7,12.9,30.21,SW,225,1.1,2.0,42,0.00,,,0.02,WUHU216HW,2013-01-19 02:03:00,
2013-01-18 18:08:00,33.3,12.1,30.21,SW,225,0.4,1.8,41,0.00,,,0.02,WUHU216HW,2013-01-19 02:08:00,
2013-01-18 18:13:00,33.1,11.9,30.21,SSW,203,0.7,1.3,41,0.00,,,0.02,WUHU216HW,2013-01-19 02:13:00,
2013-01-18 18:18:00,32.9,11.8,30.21,South,180,0.4,0.9,41,0.00,,,0.02,WUHU216HW,2013-01-19 02:18:00,
2013-01-18 18:23:00,32.8,11.6,30.21,South,180,0.4,0.9,41,0.00,,,0.02,WUHU216HW,2013-01-19 02:23:00,
2013-01-18 18:28:00,32.8,11.6,30.21,SSW,203,1.3,1.3,41,0.00,,,0.02,WUHU216HW,2013-01-19 02:28:00,
2013-01-18 18:33:00,32.4,11.8,30.21,SW,225,2.5,2.9,42,0.00,,,0.02,WUHU216HW,2013-01-19 02:33:00,
2013-01-18 18:38:00,32.0,11.4,30.21,SW,225,1.8,2.9,42,0.00,,,0.02,WUHU216HW,2013-01-19 02:38:00,
2013-01-18 18:43:00,31.7,11.6,30.22,SW,225,2.0,2.7,43,0.00,,,0.02,WUHU216HW,2013-01-19 02:43:00,
2013-01-18 18:48:00,31.5,11.4,30.21,SW,225,2.2,2.7,43,0.00,,,0.02,WUHU216HW,2013-01-19 02:48:00,
2013-01-18 18:53:00,31.3,10.8,30.21,SW,225,2.0,2.5,42,0.00,,,0.02,WUHU216HW,2013-01-19 02:53:00,
2013-01-18 18:58:00,31.0,10.4,30.21,WSW,248,1.8,2.7,42,0.00,,,0.02,WUHU216HW,2013-01-19 02:58:00,
2013-01-18 19:03:00,30.8,10.4,30.21,WSW,248,1.1,2.7,42,0.00,,,0.02,WUHU216HW,2013-01-19 03:03:00,
2013-01-18 19:08:00,30.6,10.2,30.21,WSW,248,1.8,2.0,42,0.00,,,0.02,WUHU216HW,2013-01-19 03:08:00,
2013-01-18 19:13:00,30.4,10.0,30.22,WSW,248,1.3,2.0,42,0.00,,,0.02,WUHU216HW,2013-01-19 03:13:00,
2013-01-18 19:18:00,30.2,9.8,30.21,WSW,248,1.8,2.0,42,0.00,,,0.02,WUHU216HW,2013-01-19 03:18:00,
2013-01-18 19:23:00,30.2,9.4,30.22,SW,225,2.2,2.7,41,0.00,,,0.02,WUHU216HW,2013-01-19 03:23:00,
2013-01-18 19:28:00,30.1,9.2,30.21,SW,225,1.1,2.7,41,0.00,,,0.02,WUHU216HW,2013-01-19 03:28:00,
2013-01-18 19:33:00,29.9,9.0,30.22,SW,225,0.2,2.2,41,0.00,,,0.02,WUHU216HW,2013-01-19 03:33:00,
2013-01-18 19:38:00,30.1,8.6,30.22,SW,225,0.0,1.1,40,0.00,,,0.02,WUHU216HW,2013-01-19 03:38:00,
2013-01-18 19:43:00,30.1,8.0,30.22,WSW,248,0.7,1.1,39,0.00,,,0.02,WUHU216HW,2013-01-19 03:43:00,
2013-01-18 19:48:00,29.9,7.8,30.22,WSW,248,1.3,1.3,39,0.00,,,0.02,WUHU216HW,2013-01-19 03:48:00,
2013-01-18 19:53:00,29.9,7.8,30.22,WSW,248,1.8,2.0,39,0.00,,,0.02,WUHU216HW,2013-01-19 03:53:00,
2013-01-18 19:58:00,29.9,7.8,30.22,WSW,248,1.1,2.0,39,0.00,,,0.02,WUHU216HW,2013-01-19 03:58:00,
2013-01-18 20:03:00,29.7,7.8,30.22,WSW,248,1.3,1.8,39,0.00,,,0.02,WUHU216HW,2013-01-19 04:03:00,
2013-01-18 20:08:00,29.5,7.6,30.22,WSW,248,1.3,2.0,39,0.00,,,0.02,WUHU216HW,2013-01-19 04:08:00,
2013-01-18 20:13:00,29.5,7.6,30.22,WSW,248,2.0,2.2,39,0.00,,,0.02,WUHU216HW,2013-01-19 04:13:00,
2013-01-18 20:18:00,29.3,6.8,30.22,WSW,248,1.3,2.2,38,0.00,,,0.02,WUHU216HW,2013-01-19 04:18:00,
2013-01-18 20:23:00,29.2,6.6,30.22,WSW,248,1.3,2.2,38,0.00,,,0.02,WUHU216HW,2013-01-19 04:23:00,
2013-01-18 20:28:00,29.0,6.4,30.22,WSW,248,2.0,2.2,38,0.00,,,0.02,WUHU216HW,2013-01-19 04:28:00,
2013-01-18 20:33:00,29.0,6.4,30.22,WSW,248,1.3,2.2,38,0.00,,,0.02,WUHU216HW,2013-01-19 04:33:00,
2013-01-18 20:38:00,28.8,6.3,30.22,WSW,248,1.6,2.2,38,0.00,,,0.02,WUHU216HW,2013-01-19 04:38:00,
2013-01-18 20:43:00,28.8,6.3,30.22,WSW,248,1.3,2.2,38,0.00,,,0.02,WUHU216HW,2013-01-19 04:43:00,
2013-01-18 20:48:00,28.6,6.1,30.22,WSW,248,2.0,2.2,38,0.00,,,0.02,WUHU216HW,2013-01-19 04:48:00,
2013-01-18 20:53:00,28.6,6.1,30.22,SW,225,1.1,2.2,38,0.00,,,0.02,WUHU216HW,2013-01-19 04:53:00,
2013-01-18 20:58:00,28.6,6.1,30.22,East,90,0.0,2.2,38,0.00,,,0.02,WUHU216HW,2013-01-19 04:58:00,
2013-01-18 21:01:00,28.6,6.1,30.22,ESE,113,0.0,2.2,38,0.00,,,0.02,WUHU216HW,2013-01-19 05:01:00,
2013-01-18 21:02:00,28.6,6.1,30.22,SSW,203,1.1,1.8,38,0.00,,,0.02,WUHU216HW,2013-01-19 05:02:00,
2013-01-18 21:03:00,28.6,6.1,30.22,SSW,203,1.1,1.6,38,0.00,,,0.02,WUHU216HW,2013-01-19 05:03:00,
2013-01-18 21:08:00,28.6,5.5,30.22,SW,225,1.6,1.6,37,0.00,,,0.02,WUHU216HW,2013-01-19 05:08:00,
2013-01-18 21:13:00,28.6,5.5,30.22,SW,225,1.8,1.8,37,0.00,,,0.02,WUHU216HW,2013-01-19 05:13:00,
2013-01-18 21:18:00,28.4,5.3,30.22,SW,225,2.0,2.2,37,0.00,,,0.02,WUHU216HW,2013-01-19 05:18:00,
2013-01-18 21:23:00,28.4,5.9,30.22,SW,225,1.3,2.5,38,0.00,,,0.02,WUHU216HW,2013-01-19 05:23:00,
2013-01-18 21:28:00,28.4,5.3,30.22,SW,225,0.0,2.5,37,0.00,,,0.02,WUHU216HW,2013-01-19 05:28:00,
2013-01-18 21:33:00,28.4,5.3,30.22,SW,225,0.4,1.6,37,0.00,,,0.02,WUHU216HW,2013-01-19 05:33:00,
2013-01-18 21:38:00,28.4,5.3,30.22,SW,225,1.1,1.6,37,0.00,,,0.02,WUHU216HW,2013-01-19 05:38:00,
2013-01-18 21:43:00,28.4,5.3,30.22,SW,225,0.9,1.6,37,0.00,,,0.02,WUHU216HW,2013-01-19 05:43:00,
2013-01-18 21:48:00,28.4,5.3,30.22,SW,225,1.1,1.6,37,0.00,,,0.02,WUHU216HW,2013-01-19 05:48:00,
2013-01-18 21:53:00,28.4,4.7,30.22,SW,225,0.7,1.6,36,0.00,,,0.02,WUHU216HW,2013-01-19 05:53:00,
2013-01-18 21:58:00,28.4,4.7,30.22,SW,225,1.1,1.3,36,0.00,,,0.02,WUHU216HW,2013-01-19 05:58:00,
2013-01-18 22:03:00,28.4,4.7,30.22,SW,225,1.1,1.3,36,0.00,,,0.02,WUHU216HW,2013-01-19 06:03:00,
2013-01-18 22:08:00,28.4,4.1,30.23,SW,225,1.1,1.1,35,0.00,,,0.02,WUHU216HW,2013-01-19 06:08:00,
2013-01-18 22:13:00,28.4,4.1,30.23,SW,225,1.1,1.1,35,0.00,,,0.02,WUHU216HW,2013-01-19 06:13:00,
2013-01-18 22:18:00,28.4,4.1,30.23,SW,225,1.1,1.3,35,0.00,,,0.02,WUHU216HW,2013-01-19 06:18:00,
2013-01-18 22:23:00,28.1,3.7,30.23,SW,225,1.8,2.0,35,0.00,,,0.02,WUHU216HW,2013-01-19 06:23:00,
2013-01-18 22:28:00,27.9,3.6,30.22,SW,225,1.8,2.0,35,0.00,,,0.02,WUHU216HW,2013-01-19 06:28:00,
2013-01-18 22:33:00,27.7,3.4,30.22,SW,225,2.0,2.0,35,0.00,,,0.02,WUHU216HW,2013-01-19 06:33:00,
2013-01-18 22:38:00,27.7,3.4,30.22,SW,225,1.8,2.0,35,0.00,,,0.02,WUHU216HW,2013-01-19 06:38:00,
2013-01-18 22:43:00,27.5,3.2,30.23,SW,225,1.1,2.0,35,0.00,,,0.02,WUHU216HW,2013-01-19 06:43:00,
2013-01-18 22:48:00,27.5,2.6,30.23,SW,225,1.1,1.8,34,0.00,,,0.02,WUHU216HW,2013-01-19 06:48:00,
2013-01-18 22:53:00,27.5,2.0,30.22,SW,225,1.1,1.8,33,0.00,,,0.02,WUHU216HW,2013-01-19 06:53:00,
2013-01-18 22:58:00,27.4,2.4,30.22,SW,225,1.6,1.8,34,0.00,,,0.02,WUHU216HW,2013-01-19 06:58:00,
2013-01-18 23:03:00,27.2,2.3,30.22,SW,225,1.6,1.8,34,0.00,,,0.02,WUHU216HW,2013-01-19 07:03:00,
2013-01-18 23:08:00,27.2,1.6,30.22,SW,225,1.8,1.8,33,0.00,,,0.02,WUHU216HW,2013-01-19 07:08:00,
2013-01-18 23:13:00,27.2,2.3,30.22,SW,225,1.6,1.8,34,0.00,,,0.02,WUHU216HW,2013-01-19 07:13:00,
2013-01-18 23:18:00,27.2,1.6,30.22,SW,225,1.3,1.8,33,0.00,,,0.02,WUHU216HW,2013-01-19 07:18:00,
2013-01-18 23:23:00,27.0,1.5,30.22,SW,225,1.6,1.8,33,0.00,,,0.02,WUHU216HW,2013-01-19 07:23:00,
2013-01-18 23:28:00,27.0,1.5,30.22,SW,225,1.8,2.2,33,0.00,,,0.02,WUHU216HW,2013-01-19 07:28:00,
2013-01-18 23:33:00,27.0,0.9,30.22,SW,225,2.0,2.2,32,0.00,,,0.02,WUHU216HW,2013-01-19 07:33:00,
2013-01-18 23:38:00,26.8,0.7,30.22,SW,225,2.2,2.5,32,0.00,,,0.02,WUHU216HW,2013-01-19 07:38:00,
2013-01-18 23:43:00,26.6,0.5,30.22,SW,225,1.8,2.5,32,0.00,,,0.02,WUHU216HW,2013-01-19 07:43:00,
2013-01-18 23:48:00,26.6,0.5,30.22,WSW,248,1.3,2.2,32,0.00,,,0.02,WUHU216HW,2013-01-19 07:48:00,
2013-01-18 23:53:00,26.6,0.5,30.22,WSW,248,1.3,2.0,32,0.00,,,0.02,WUHU216HW,2013-01-19 07:53:00,
2013-01-18 23:58:00,26.6,1.2,30.22,WSW,248,1.1,2.0,33,0.00,,,0.02,WUHU216HW,2013-01-19 07:58:00,